Time,TemperatureF,DewpointF,PressureIn,WindDirection,WindDirectionDegrees,WindSpeedMPH,WindSpeedGustMPH,Humidity,HourlyPrecipIn,Conditions,Clouds,dailyrainin,SoftwareType,DateUTC
2013-01-12 00:03:00,46.0,46.0,30.26,NNW,333,3.0,-999.0,99,-99.99,,,-99.99,,2013-01-12 05:03:00,
2013-01-12 00:12:00,46.0,46.0,30.26,NNW,333,3.0,-999.0,99,-99.99,,,-99.99,,2013-01-12 05:12:00,
2013-01-12 00:22:00,49.0,49.0,30.25,NW,315,2.0,-999.0,99,-99.99,,,-99.99,,2013-01-12 05:22:00,
2013-01-12 00:32:00,46.0,45.0,30.25,NW,315,0.0,-999.0,98,-99.99,,,-99.99,,2013-01-12 05:32:00,
2013-01-12 00:42:00,46.0,45.0,30.25,NW,315,0.0,-999.0,98,-99.99,,,-99.99,,2013-01-12 05:42:00,
2013-01-12 00:53:00,45.0,44.0,30.25,NW,318,1.0,-999.0,98,-99.99,,,-99.99,,2013-01-12 05:53:00,
2013-01-12 01:02:00,46.0,45.0,30.25,NW,315,0.0,-999.0,98,-99.99,,,-99.99,,2013-01-12 06:02:00,
2013-01-12 01:12:00,46.0,45.0,30.25,NW,315,0.0,-999.0,98,-99.99,,,-99.99,,2013-01-12 06:12:00,
2013-01-12 01:22:00,49.0,49.0,30.24,NNW,344,2.0,-999.0,99,-99.99,,,-99.99,,2013-01-12 06:22:00,
2013-01-12 01:33:00,51.0,51.0,30.25,NW,308,3.0,-999.0,99,-99.99,,,-99.99,,2013-01-12 06:33:00,
2013-01-12 01:43:00,51.0,51.0,30.25,NW,308,3.0,-999.0,99,-99.99,,,-99.99,,2013-01-12 06:43:00,
2013-01-12 01:53:00,52.0,52.0,30.24,NNE,15,1.0,-999.0,99,-99.99,,,-99.99,,2013-01-12 06:53:00,
2013-01-12 02:02:00,51.0,51.0,30.25,North,5,0.0,-999.0,99,-99.99,,,-99.99,,2013-01-12 07:02:00,
2013-01-12 02:12:00,49.0,48.0,30.25,North,5,0.0,-999.0,97,-99.99,,,-99.99,,2013-01-12 07:12:00,
2013-01-12 02:22:00,49.0,48.0,30.25,North,5,0.0,-999.0,97,-99.99,,,-99.99,,2013-01-12 07:22:00,
2013-01-12 02:32:00,50.0,50.0,30.25,North,5,0.0,-999.0,99,-99.99,,,-99.99,,2013-01-12 07:32:00,
2013-01-12 02:42:00,50.0,50.0,30.25,North,5,0.0,-999.0,99,-99.99,,,-99.99,,2013-01-12 07:42:00,
2013-01-12 02:53:00,49.0,48.0,30.25,North,5,0.0,-999.0,98,-99.99,,,-99.99,,2013-01-12 07:53:00,
2013-01-12 03:02:00,48.0,47.0,30.25,North,5,0.0,-999.0,98,-99.99,,,-99.99,,2013-01-12 08:02:00,
2013-01-12 03:12:00,48.0,47.0,30.25,North,5,0.0,-999.0,98,-99.99,,,-99.99,,2013-01-12 08:12:00,
2013-01-12 03:22:00,48.0,47.0,30.25,North,5,0.0,-999.0,98,-99.99,,,-99.99,,2013-01-12 08:22:00,
2013-01-12 03:32:00,48.0,47.0,30.24,North,5,0.0,-999.0,98,-99.99,,,-99.99,,2013-01-12 08:32:00,
2013-01-12 03:42:00,48.0,47.0,30.24,North,5,0.0,-999.0,98,-99.99,,,-99.99,,2013-01-12 08:42:00,
2013-01-12 03:53:00,49.0,48.0,30.24,North,5,0.0,-999.0,98,-99.99,,,-99.99,,2013-01-12 08:53:00,
2013-01-12 04:02:00,49.0,48.0,30.24,North,5,0.0,-999.0,98,-99.99,,,-99.99,,2013-01-12 09:02:00,
2013-01-12 04:12:00,49.0,48.0,30.24,North,5,0.0,-999.0,98,-99.99,,,-99.99,,2013-01-12 09:12:00,
2013-01-12 04:22:00,49.0,49.0,30.24,North,5,0.0,-999.0,99,-99.99,,,-99.99,,2013-01-12 09:22:00,
2013-01-12 04:32:00,50.0,49.0,30.24,North,5,0.0,-999.0,98,-99.99,,,-99.99,,2013-01-12 09:32:00,
2013-01-12 04:42:00,50.0,49.0,30.24,North,5,0.0,-999.0,98,-99.99,,,-99.99,,2013-01-12 09:42:00,
2013-01-12 04:53:00,50.0,50.0,30.24,North,5,0.0,-999.0,99,-99.99,,,-99.99,,2013-01-12 09:53:00,
2013-01-12 05:02:00,51.0,51.0,30.24,North,5,0.0,-999.0,99,-99.99,,,-99.99,,2013-01-12 10:02:00,
2013-01-12 05:12:00,51.0,51.0,30.24,North,5,0.0,-999.0,99,-99.99,,,-99.99,,2013-01-12 10:12:00,
2013-01-12 05:22:00,50.0,49.0,30.24,North,5,0.0,-999.0,98,-99.99,,,-99.99,,2013-01-12 10:22:00,
2013-01-12 05:32:00,50.0,49.0,30.24,North,5,0.0,-999.0,98,-99.99,,,-99.99,,2013-01-12 10:32:00,
2013-01-12 05:42:00,50.0,49.0,30.24,North,5,0.0,-999.0,98,-99.99,,,-99.99,,2013-01-12 10:42:00,
2013-01-12 05:52:00,51.0,51.0,30.24,North,5,0.0,-999.0,99,-99.99,,,-99.99,,2013-01-12 10:52:00,
2013-01-12 06:02:00,51.0,51.0,30.24,NW,321,1.0,-999.0,99,-99.99,,,-99.99,,2013-01-12 11:02:00,
2013-01-12 06:12:00,51.0,51.0,30.24,NW,321,1.0,-999.0,99,-99.99,,,-99.99,,2013-01-12 11:12:00,
2013-01-12 06:22:00,51.0,51.0,30.24,NW,321,0.0,-999.0,99,-99.99,,,-99.99,,2013-01-12 11:22:00,
2013-01-12 06:32:00,50.0,49.0,30.24,NW,321,0.0,-999.0,98,-99.99,,,-99.99,,2013-01-12 11:32:00,
2013-01-12 06:42:00,50.0,49.0,30.24,NW,321,0.0,-999.0,98,-99.99,,,-99.99,,2013-01-12 11:42:00,
2013-01-12 06:53:00,52.0,52.0,30.24,NW,321,1.0,-999.0,99,-99.99,,,-99.99,,2013-01-12 11:53:00,
2013-01-12 07:03:00,52.0,52.0,30.25,NW,321,0.0,-999.0,99,-99.99,,,-99.99,,2013-01-12 12:03:00,
2013-01-12 07:12:00,52.0,52.0,30.25,NW,321,0.0,-999.0,99,-99.99,,,-99.99,,2013-01-12 12:12:00,
2013-01-12 07:22:00,51.0,50.0,30.26,NE,42,1.0,-999.0,98,-99.99,,,-99.99,,2013-01-12 12:22:00,
2013-01-12 07:32:00,51.0,50.0,30.27,South,188,1.0,-999.0,98,-99.99,,,-99.99,,2013-01-12 12:32:00,
2013-01-12 07:43:00,51.0,50.0,30.27,South,188,1.0,-999.0,98,-99.99,,,-99.99,,2013-01-12 12:43:00,
2013-01-12 07:53:00,51.0,51.0,30.27,West,269,1.0,-999.0,99,-99.99,,,-99.99,,2013-01-12 12:53:00,
2013-01-12 08:02:00,53.0,53.0,30.27,NW,321,2.0,-999.0,99,-99.99,,,-99.99,,2013-01-12 13:02:00,
2013-01-12 08:12:00,53.0,53.0,30.27,NW,321,2.0,-999.0,99,-99.99,,,-99.99,,2013-01-12 13:12:00,
2013-01-12 08:23:00,56.0,56.0,30.26,WNW,293,5.0,-999.0,99,-99.99,,,-99.99,,2013-01-12 13:23:00,
2013-01-12 08:33:00,58.0,56.0,30.27,NW,305,6.0,-999.0,93,-99.99,,,-99.99,,2013-01-12 13:33:00,
2013-01-12 08:43:00,58.0,56.0,30.27,NW,305,6.0,-999.0,93,-99.99,,,-99.99,,2013-01-12 13:43:00,
2013-01-12 08:53:00,60.0,56.0,30.26,West,281,9.0,-999.0,88,-99.99,,,-99.99,,2013-01-12 13:53:00,
2013-01-12 09:02:00,61.0,57.0,30.27,WNW,299,8.0,-999.0,87,-99.99,,,-99.99,,2013-01-12 14:02:00,
2013-01-12 09:12:00,61.0,57.0,30.27,WNW,299,8.0,-999.0,87,-99.99,,,-99.99,,2013-01-12 14:12:00,
2013-01-12 09:22:00,62.0,57.0,30.27,NNW,329,9.0,-999.0,85,-99.99,,,-99.99,,2013-01-12 14:22:00,
2013-01-12 09:33:00,62.0,57.0,30.27,NW,309,7.0,-999.0,84,-99.99,,,-99.99,,2013-01-12 14:33:00,
2013-01-12 09:43:00,62.0,57.0,30.27,NW,309,7.0,-999.0,84,-99.99,,,-99.99,,2013-01-12 14:43:00,
2013-01-12 09:53:00,62.0,57.0,30.27,NW,317,6.0,-999.0,85,-99.99,,,-99.99,,2013-01-12 14:53:00,
2013-01-12 10:03:00,62.0,57.0,30.27,WNW,297,7.0,-999.0,85,-99.99,,,-99.99,,2013-01-12 15:03:00,
2013-01-12 10:13:00,62.0,57.0,30.27,WNW,297,7.0,-999.0,85,-99.99,,,-99.99,,2013-01-12 15:13:00,
2013-01-12 10:23:00,62.0,57.0,30.28,NNW,330,6.0,-999.0,85,-99.99,,,-99.99,,2013-01-12 15:23:00,
2013-01-12 10:33:00,63.0,58.0,30.27,West,278,6.0,-999.0,84,-99.99,,,-99.99,,2013-01-12 15:33:00,
2013-01-12 10:43:00,63.0,58.0,30.27,West,278,6.0,-999.0,84,-99.99,,,-99.99,,2013-01-12 15:43:00,
2013-01-12 10:53:00,64.0,59.0,30.27,NW,306,5.0,-999.0,83,-99.99,,,-99.99,,2013-01-12 15:53:00,
2013-01-12 11:03:00,64.0,59.0,30.27,NW,311,6.0,-999.0,83,-99.99,,,-99.99,,2013-01-12 16:03:00,
2013-01-12 11:12:00,64.0,59.0,30.27,NW,311,6.0,-999.0,83,-99.99,,,-99.99,,2013-01-12 16:12:00,
2013-01-12 11:23:00,63.0,58.0,30.27,WNW,297,9.0,-999.0,83,-99.99,,,-99.99,,2013-01-12 16:23:00,
2013-01-12 11:33:00,63.0,57.0,30.27,WNW,303,9.0,-999.0,81,-99.99,,,-99.99,,2013-01-12 16:33:00,
2013-01-12 11:43:00,63.0,57.0,30.27,WNW,303,9.0,-999.0,81,-99.99,,,-99.99,,2013-01-12 16:43:00,
2013-01-12 11:53:00,63.0,57.0,30.26,West,267,7.0,-999.0,81,-99.99,,,-99.99,,2013-01-12 16:53:00,
2013-01-12 12:02:00,63.0,56.0,30.25,WNW,294,9.0,-999.0,78,-99.99,,,-99.99,,2013-01-12 17:02:00,
2013-01-12 12:12:00,63.0,56.0,30.25,WNW,294,9.0,-999.0,78,-99.99,,,-99.99,,2013-01-12 17:12:00,
2013-01-12 12:23:00,64.0,56.0,30.24,West,275,9.0,-999.0,76,-99.99,,,-99.99,,2013-01-12 17:23:00,
2013-01-12 12:33:00,63.0,56.0,30.24,WNW,286,10.0,-999.0,77,-99.99,,,-99.99,,2013-01-12 17:33:00,
2013-01-12 12:43:00,63.0,56.0,30.24,WNW,286,10.0,-999.0,77,-99.99,,,-99.99,,2013-01-12 17:43:00,
2013-01-12 12:53:00,65.0,57.0,30.23,WNW,294,7.0,-999.0,76,-99.99,,,-99.99,,2013-01-12 17:53:00,
2013-01-12 13:03:00,66.0,57.0,30.22,WNW,300,10.0,-999.0,72,-99.99,,,-99.99,,2013-01-12 18:03:00,
2013-01-12 13:12:00,66.0,57.0,30.22,WNW,300,10.0,-999.0,72,-99.99,,,-99.99,,2013-01-12 18:12:00,
2013-01-12 13:23:00,67.0,57.0,30.22,WNW,302,13.0,-999.0,71,-99.99,,,-99.99,,2013-01-12 18:23:00,
2013-01-12 13:33:00,67.0,57.0,30.21,WNW,284,9.0,-999.0,70,-99.99,,,-99.99,,2013-01-12 18:33:00,
2013-01-12 13:43:00,67.0,57.0,30.21,WNW,284,9.0,-999.0,70,-99.99,,,-99.99,,2013-01-12 18:43:00,
2013-01-12 13:53:00,67.0,56.0,30.21,WNW,302,11.0,-999.0,68,-99.99,,,-99.99,,2013-01-12 18:53:00,
2013-01-12 14:03:00,68.0,57.0,30.20,NNW,344,6.0,-999.0,67,-99.99,,,-99.99,,2013-01-12 19:03:00,
2013-01-12 14:12:00,68.0,57.0,30.20,NNW,344,6.0,-999.0,67,-99.99,,,-99.99,,2013-01-12 19:12:00,
2013-01-12 14:23:00,68.0,57.0,30.20,WNW,296,9.0,-999.0,67,-99.99,,,-99.99,,2013-01-12 19:23:00,
2013-01-12 14:33:00,70.0,58.0,30.20,West,279,7.0,-999.0,65,-99.99,,,-99.99,,2013-01-12 19:33:00,
2013-01-12 14:43:00,70.0,58.0,30.20,West,279,7.0,-999.0,65,-99.99,,,-99.99,,2013-01-12 19:43:00,
2013-01-12 14:53:00,70.0,57.0,30.20,West,273,9.0,-999.0,63,-99.99,,,-99.99,,2013-01-12 19:53:00,
2013-01-12 15:03:00,69.0,56.0,30.20,WSW,239,6.0,-999.0,64,-99.99,,,-99.99,,2013-01-12 20:03:00,
2013-01-12 15:12:00,68.0,56.0,30.20,West,278,6.0,-999.0,66,-99.99,,,-99.99,,2013-01-12 20:12:00,
2013-01-12 15:22:00,68.0,56.0,30.20,West,278,6.0,-999.0,66,-99.99,,,-99.99,,2013-01-12 20:22:00,
2013-01-12 15:33:00,69.0,57.0,30.20,NW,317,8.0,-999.0,66,-99.99,,,-99.99,,2013-01-12 20:33:00,
2013-01-12 15:42:00,69.0,57.0,30.20,NW,317,8.0,-999.0,66,-99.99,,,-99.99,,2013-01-12 20:42:00,
2013-01-12 15:53:00,68.0,57.0,30.20,NW,317,4.0,-999.0,68,-99.99,,,-99.99,,2013-01-12 20:53:00,
2013-01-12 16:03:00,67.0,57.0,30.20,WNW,292,3.0,-999.0,71,-99.99,,,-99.99,,2013-01-12 21:03:00,
2013-01-12 16:12:00,67.0,58.0,30.20,WNW,292,0.0,-999.0,72,-99.99,,,-99.99,,2013-01-12 21:12:00,
2013-01-12 16:22:00,67.0,58.0,30.20,WNW,292,0.0,-999.0,72,-99.99,,,-99.99,,2013-01-12 21:22:00,
2013-01-12 16:33:00,67.0,58.0,30.19,WNW,292,0.0,-999.0,72,-99.99,,,-99.99,,2013-01-12 21:33:00,
2013-01-12 16:43:00,67.0,58.0,30.19,WNW,292,0.0,-999.0,72,-99.99,,,-99.99,,2013-01-12 21:43:00,
2013-01-12 16:53:00,67.0,58.0,30.19,WNW,292,0.0,-999.0,73,-99.99,,,-99.99,,2013-01-12 21:53:00,
2013-01-12 17:03:00,66.0,58.0,30.19,WNW,292,0.0,-999.0,75,-99.99,,,-99.99,,2013-01-12 22:03:00,
2013-01-12 17:12:00,66.0,58.0,30.19,WNW,292,0.0,-999.0,75,-99.99,,,-99.99,,2013-01-12 22:12:00,
2013-01-12 17:23:00,65.0,57.0,30.18,SE,129,4.0,-999.0,76,-99.99,,,-99.99,,2013-01-12 22:23:00,
2013-01-12 17:33:00,63.0,57.0,30.18,East,90,1.0,-999.0,80,-99.99,,,-99.99,,2013-01-12 22:33:00,
2013-01-12 17:43:00,63.0,57.0,30.18,East,90,1.0,-999.0,80,-99.99,,,-99.99,,2013-01-12 22:43:00,
2013-01-12 17:53:00,62.0,56.0,30.19,SE,133,1.0,-999.0,82,-99.99,,,-99.99,,2013-01-12 22:53:00,
2013-01-12 18:03:00,61.0,56.0,30.18,SE,140,1.0,-999.0,84,-99.99,,,-99.99,,2013-01-12 23:03:00,
2013-01-12 18:13:00,60.0,55.0,30.18,SE,140,0.0,-999.0,85,-99.99,,,-99.99,,2013-01-12 23:13:00,
2013-01-12 18:23:00,60.0,55.0,30.18,SE,140,0.0,-999.0,85,-99.99,,,-99.99,,2013-01-12 23:23:00,
2013-01-12 18:33:00,60.0,55.0,30.18,SE,140,0.0,-999.0,85,-99.99,,,-99.99,,2013-01-12 23:33:00,
2013-01-12 18:43:00,60.0,55.0,30.18,SE,140,0.0,-999.0,85,-99.99,,,-99.99,,2013-01-12 23:43:00,
2013-01-12 18:53:00,59.0,55.0,30.18,SE,140,0.0,-999.0,87,-99.99,,,-99.99,,2013-01-12 23:53:00,
2013-01-12 19:03:00,58.0,55.0,30.18,SE,140,0.0,-999.0,89,-99.99,,,-99.99,,2013-01-13 00:03:00,
2013-01-12 19:12:00,58.0,55.0,30.18,SE,140,0.0,-999.0,89,-99.99,,,-99.99,,2013-01-13 00:12:00,
2013-01-12 19:23:00,58.0,55.0,30.18,SE,140,0.0,-999.0,90,-99.99,,,-99.99,,2013-01-13 00:23:00,
2013-01-12 19:33:00,58.0,55.0,30.17,SE,140,1.0,-999.0,91,-99.99,,,-99.99,,2013-01-13 00:33:00,
2013-01-12 19:43:00,58.0,55.0,30.17,SE,140,1.0,-999.0,91,-99.99,,,-99.99,,2013-01-13 00:43:00,
2013-01-12 19:53:00,58.0,55.0,30.17,SE,139,1.0,-999.0,91,-99.99,,,-99.99,,2013-01-13 00:53:00,
2013-01-12 20:03:00,58.0,56.0,30.16,SE,138,2.0,-999.0,92,-99.99,,,-99.99,,2013-01-13 01:03:00,
2013-01-12 20:12:00,58.0,56.0,30.16,SE,138,2.0,-999.0,92,-99.99,,,-99.99,,2013-01-13 01:12:00,
2013-01-12 20:23:00,58.0,56.0,30.16,East,96,2.0,-999.0,92,-99.99,,,-99.99,,2013-01-13 01:23:00,
2013-01-12 20:33:00,59.0,56.0,30.17,East,98,2.0,-999.0,90,-99.99,,,-99.99,,2013-01-13 01:33:00,
2013-01-12 20:43:00,59.0,56.0,30.17,East,98,2.0,-999.0,90,-99.99,,,-99.99,,2013-01-13 01:43:00,
2013-01-12 20:53:00,58.0,55.0,30.16,East,99,1.0,-999.0,89,-99.99,,,-99.99,,2013-01-13 01:53:00,
2013-01-12 21:02:00,58.0,55.0,30.16,East,98,0.0,-999.0,90,-99.99,,,-99.99,,2013-01-13 02:02:00,
2013-01-12 21:13:00,58.0,55.0,30.16,East,98,0.0,-999.0,90,-99.99,,,-99.99,,2013-01-13 02:13:00,
2013-01-12 21:23:00,58.0,55.0,30.17,ENE,59,2.0,-999.0,89,-99.99,,,-99.99,,2013-01-13 02:23:00,
2013-01-12 21:33:00,59.0,56.0,30.16,NE,44,1.0,-999.0,90,-99.99,,,-99.99,,2013-01-13 02:33:00,
2013-01-12 21:43:00,59.0,56.0,30.16,NE,44,1.0,-999.0,90,-99.99,,,-99.99,,2013-01-13 02:43:00,
2013-01-12 21:53:00,59.0,56.0,30.16,East,96,1.0,-999.0,89,-99.99,,,-99.99,,2013-01-13 02:53:00,
2013-01-12 22:02:00,59.0,56.0,30.16,SSE,165,1.0,-999.0,90,-99.99,,,-99.99,,2013-01-13 03:02:00,
2013-01-12 22:12:00,59.0,56.0,30.16,SSE,165,1.0,-999.0,90,-99.99,,,-99.99,,2013-01-13 03:12:00,
2013-01-12 22:22:00,58.0,55.0,30.15,SSE,148,0.0,-999.0,90,-99.99,,,-99.99,,2013-01-13 03:22:00,
2013-01-12 22:33:00,58.0,54.0,30.16,SSE,158,2.0,-999.0,88,-99.99,,,-99.99,,2013-01-13 03:33:00,
2013-01-12 22:43:00,58.0,54.0,30.16,SSE,158,2.0,-999.0,88,-99.99,,,-99.99,,2013-01-13 03:43:00,
2013-01-12 22:53:00,59.0,55.0,30.15,SSE,163,2.0,-999.0,86,-99.99,,,-99.99,,2013-01-13 03:53:00,
2013-01-12 23:02:00,59.0,54.0,30.15,SSE,150,2.0,-999.0,85,-99.99,,,-99.99,,2013-01-13 04:02:00,
2013-01-12 23:12:00,59.0,54.0,30.15,SSE,150,2.0,-999.0,85,-99.99,,,-99.99,,2013-01-13 04:12:00,
2013-01-12 23:22:00,59.0,54.0,30.15,SW,232,5.0,-999.0,84,-99.99,,,-99.99,,2013-01-13 04:22:00,
2013-01-12 23:33:00,59.0,54.0,30.15,West,279,1.0,-999.0,84,-99.99,,,-99.99,,2013-01-13 04:33:00,
2013-01-12 23:43:00,59.0,54.0,30.15,West,279,1.0,-999.0,84,-99.99,,,-99.99,,2013-01-13 04:43:00,
2013-01-12 23:53:00,59.0,54.0,30.16,NW,304,3.0,-999.0,85,-99.99,,,-99.99,,2013-01-13 04:53:00,